Location: Cahas Mountain Overlook
(37.0833°N, 80.1000°W)
Time: 19:23:50
(UTC-04:00)

SR - Pass Details

Date: 17 February 2026
Orbit: 572 x 849 km, 66.7° (Epoch: 12 March)

Event Time Altitude Azimuth Distance (km) Brightness Sun altitude
Rises 15:42:23 0° 305° (NW) 3,185 ? 24.2°
Reaches altitude 10° 15:47:06 10° 266° (W) 2,333 ? 23.5°
Maximum altitude 15:48:00 10° 256° (WSW) 2,317 ? 23.3°
Drops below altitude 10° 15:48:54 10° 246° (WSW) 2,357 ? 23.2°
Sets 15:53:51 0° 208° (SSW) 3,342 ? 22.4°
